Location: Bennemühlen
(52.5740°N, 9.7135°E)
Time: 17:18:51
(UTC+00:00)

Cosmos 2322 Rocket - Pass Details

Date: 19 May 2025
Orbit: 832 x 849 km, 71.0° (Epoch: 16 June)

Event Time Altitude Azimuth Distance (km) Brightness Sun altitude
Rises 21:04:41 0° 328° (NNW) 3,421 7.6 -11.9°
Reaches altitude 10° 21:07:32 10° 341° (NNW) 2,480 6.1 -12.1°
Maximum altitude 21:12:21 27° 38° (NE) 1,569 3.8 -12.5°
Drops below altitude 10° 21:17:06 10° 96° (E) 2,460 4.3 -12.9°
Enters shadow 21:18:29 - 103° (ESE) 2,899 4.6 -13.0°
